Погода в Мераге

Иран     37°23′22″N   46°14′20″E
темп.,
°C
ветер,
м/с
пор.,
м/с
влажн.,
%
обл.,
%
осадки,
мм/ч
давл.,
гПа
погр.,
м
3 августа, вт
вт301:30+18всв475319 0.0 1012404
04:30+19всв125095 0.1 1011255
07:30+18св445564 0.3 1012264
10:30+22в344037 0.3 10121129
13:30+25вюв643281 0.1 10112209
16:30+26в642674 0.2 10093018
19:30+21св684590 0.4 1012655
22:30+20всв594836 0.4 1014484
4 августа, ср
ср401:30+19св57495 0.0 1014333
04:30+18св34483 0.0 1014160
07:30+19св22465 0.0 101599
10:30+23вюв23345 0.0 10141458
13:30+26вюв432853 0.1 10132593
16:30+27всв332650 0.1 10112781
19:30+25в463078 0.0 10121487
22:30+22всв69369 0.1 1014458
5 августа, чт
чт501:30+21всв573812 0.0 1015384
04:30+20всв573962 0.0 1014370
07:30+21ссв453723 0.0 1014212
10:30+25вюв232718 0.0 10131928
13:30+27вюв642345 0.0 10123004
16:30+28в442016 0.0 10103322
19:30+26всв77240 0.0 10091908
22:30+23всв813322 0.0 1012831
6 августа, пт
пт601:30+21в4836100 0.0 1014530
04:30+21всв593596 0.1 1012392
07:30+21всв473460 0.0 1012288
10:30+25в672581 0.0 10111422
13:30+28вюв76215 0.0 10102717
16:30+29вюв752247 0.0 10082909
19:30+28вюв672335 0.0 10072618
22:30+25в7112998 0.1 1010811
7 августа, сб
сб701:30+23всв463474 0.1 1011257
04:30+21всв463629 0.1 1010231
07:30+21всв463530 0.0 1011215
10:30+26юв35252 0.0 10111432
13:30+29ююз45223 0.0 10092645
16:30+30з561994 0.0 10073491
19:30+23ююз3541100 0.8 1012644
22:30+24вюв353699 0.8 1012374